Tracking 19170 objects as of 23-May-2018
HD Live streaming from Space Station
objects crossing your sky now

COSMOS 1056

Track COSMOS 1056 now!
10-day predictions
COSMOS 1056 is classified as:


NORAD ID: 11133
Int'l Code: 1978-109F
Perigee: 1,479.4 km
Apogee: 1,510.3 km
Inclination: 74.0 °
Period: 115.7 minutes
Semi major axis: 7865 km
RCS: 0.7294 m2 (medium)
Launch date: December 5, 1978
Source: Commonwealth of Independent States (former USSR) (CIS)
Launch site: PLESETSK MISSILE AND SPACE COMPLEX (PKMTR)
aabbcc
Your satellite tracking list
Your tracking list is empty




NASA's NSSDC Master Catalog

Two Line Element Set (TLE):
1 11133U 78109F   18142.94151233 -.00000000 +00000-0 +10912-3 0  9995
2 11133 074.0152 107.2600 0019679 014.6179 040.0722 12.44473172792688
Source of the keplerian elements: AFSPC